Location: Detroit
(42.3310°N, 83.0460°W)
Time: 23:58:24
(UTC-04:00)

A-11 Canister half - Pass Details

Date: 15 February 2023
Orbit: 1526 x 1682 km, 47.3° (Epoch: 20 March)

Event Time Altitude Azimuth Distance (km) Brightness Sun altitude
Rises 07:37:53 0° 291° (WNW) 4,680 10.8 0.8°
Reaches altitude 10° 07:40:56 10° 292° (WNW) 3,696 10.4 1.3°
Maximum altitude 07:50:17 81° 20° (NNE) 1,557 9.2 2.9°
Drops below altitude 10° 07:59:47 10° 109° (ESE) 3,754 14.0 4.6°
Sets 08:02:53 0° 110° (ESE) 4,756 14.6 5.1°
